Home > Weather > Marigot > Past weeks

Weather for the Past 2 Weeks in Marigot, Saint Martin

Now
82 °F

Scattered clouds.


Feels Like: 88 °F
Forecast: 78 / 83 °F
Wind: 12 mph from Southeast

Location: Juliana Airport - Saint Maarten

Current Time: Feb 8, 2016 at 4:09:17 PM

Latest Report: Feb 8, 2016 at 3:00 PM


Visibility: N/A

Pressure: 30.01 "Hg

Humidity: 74%

Dew point: 73 °F

Location of MarigotLocation

Historic Weather in Marigot — Graph

°F

Marigot Temperature Yesterday

Maximum temperature yesterday: 82 °F (at 10:00 AM)
Minimum temperature yesterday: 79 °F (at 12:00 AM)
Average temperature yesterday: 80 °F

High & Low Weather Summary for the Past Weeks

 TemperatureHumidityPressure
High84 °F (Jan 25, 12:00 PM)100% (Jan 30, 1:00 AM)30.18 "Hg (Jan 30, 1:00 AM)
Low73 °F (Jan 30, 12:00 AM)54% (Feb 4, 3:00 PM)29.86 "Hg (Feb 4, 3:00 PM)
Average79 °F73%30.04 "Hg
* Reported Jan 24 3:00 PM — Feb 8 3:00 PM, Marigot, Weather by CustomWeather, © 2016

Note: Actual official high and low records may vary slightly from our data, if they occured in-between our weather recording intervals... More about our weather records

Advertising

Marigot Weather History for the Previous 24 Hours

 ConditionsComfort  
Time TempWeatherWind HumidityBarometerVisibility
3:00 PM
Mon, Feb 8
82 °FScattered clouds.12 mph74%30.01 "HgN/A
2:00 PM82 °FPassing clouds.12 mph70%30.01 "HgN/A
1:00 PM82 °FScattered showers. Scattered clouds.13 mph74%30.04 "HgN/A
12:00 PM82 °FScattered clouds.10 mph74%30.07 "HgN/A
11:00 AM82 °FScattered clouds.13 mph74%30.09 "HgN/A
10:00 AM81 °FPassing clouds.15 mph79%30.09 "HgN/A
9:00 AM81 °FPassing clouds.14 mph74%30.07 "HgN/A
8:00 AM81 °FPassing clouds.9 mph74%30.07 "HgN/A
7:00 AM79 °FPassing clouds.8 mph79%30.04 "HgN/A
6:00 AM79 °FPassing clouds.10 mph79%30.01 "HgN/A
5:00 AM79 °FPassing clouds.9 mph79%30.01 "HgN/A
2:00 AM79 °FPassing clouds.9 mph79%30.04 "HgN/A
1:00 AM79 °FPassing clouds.8 mph79%30.04 "HgN/A
12:00 AM79 °FPassing clouds.8 mph79%30.07 "HgN/A
11:00 PM
Sun, Feb 7
79 °FPassing clouds.8 mph79%30.07 "HgN/A
10:00 PM79 °FPassing clouds.8 mph79%30.07 "HgN/A
9:00 PM79 °FPassing clouds.8 mph79%30.07 "HgN/A
8:00 PM79 °FPassing clouds.7 mph79%30.04 "HgN/A
7:00 PM79 °FPassing clouds.7 mph79%30.04 "HgN/A
6:00 PM81 °FPassing clouds.13 mph74%30.01 "HgN/A
5:00 PM81 °FPassing clouds.12 mph70%30.01 "HgN/A
4:00 PM82 °FPassing clouds.10 mph70%30.01 "HgN/A
Weather by CustomWeather, © 2016

See weather overviewHow to use our weather pages